Find OneWeb SL0681

NORAD ID: 56717 Int'l Des: 2023-068 Owner: ONEWEBN Country: UK Constellation: oneweb operational
LEOCIRCULARPOLARONEWEB_TYPE

实时位置

正在加载3D地球...

关于 OneWeb SL0681

正在加载描述...

即将过境

Passes for default location (London). Set your location on the main map for personalized predictions.

高度历史

Loading altitude history...

两行轨道根数

1 56717U 23068H 26106.68677218 .00000034 00000-0 51980-4 0 9999
2 56717 87.9200 256.2194 0002466 119.4516 240.6864 13.21827222142960
Epoch: Apr 16, 2026 • Age: 19 hours

当前状态

高度 1181.8 km
速度 7.27 km/s
星下点 40.50°N, 58.39°E
发射日期 May 20, 2023
运行时间 2.9 years
类型 internet

技术详情

分类 Payload
质量 148.00 kg
干质量 140.00 kg
总质量 148.00 kg
长度 1.30 m
直径 1.00 m
跨度 5.00 m
形状 Trapezoid+2 pan
制造商 ONEWUS
平台类型 ARROW
阶段状态 In Orbit
所有者/国家 ONEWEBN/UK

Most Searched